Weather History for Westfield, MA

Change the Weather History Date:

Monday, August 11, 2014

  Actual Average Record
Temperature  
Mean Temperature 72 °F -  
Max Temperature 86 °F 81 °F 93 °F (2002)
Min Temperature 57 °F 59 °F 48 °F (2007)
Cooling Degree Days 6    
Growing Degree Days 22 (Base 50)    
Moisture  
Dew Point 59 °F    
Average Humidity 69    
Maximum Humidity 93    
Minimum Humidity 38    
Precipitation  
Precipitation 0.00 in - - ()
Sea Level Pressure  
Sea Level Pressure 30.12 in    
Wind  
Wind Speed 2 mph (SSE)    
Max Wind Speed 9 mph    
Max Gust Speed -    
Visibility 10 miles    
Events      
Averages and records for this station are not official NWS values.
T = Trace of Precipitation, MM = Missing Value Source: NWS Daily Summary

Daily Weather History Graph

Daily Weather History Graph

Search for Another Location

Airport:

Trip Planner

Search our weather history database for the weather conditions in past years. The results will help you decide how hot, cold, wet, or windy it might be!

Date:

Astronomy

Aug. 11, 2014 Rise Set
Actual Time 5:54 AM EDT 7:57 PM EDT
Civil Twilight 5:23 AM EDT 8:27 PM EDT
Nautical Twilight 4:46 AM EDT 9:04 PM EDT
Astronomical Twilight 4:05 AM EDT 9:45 PM EDT
Moon 8:20 PM EDT (8/11) 6:57 AM EDT (8/11)
Length of Visible Light 15h 04m
Length of Day
14h 03m
Full, 99% of the Moon is Illuminated
Aug 11
Full
Aug 17
Last Quarter
Aug 25
New
Sep 2
First Quarter
Sep 8
Full

Hourly Weather History & Observations

Time (EDT) Temp. Heat Index Dew Point Humidity Pressure Visibility Wind Dir Wind Speed Gust Speed Precip Events Conditions
12:53 AM 60.1 °F - 57.9 °F 93% 30.13 in 10.0 mi Calm Calm - N/A   Clear
1:53 AM 61.0 °F - 57.9 °F 90% 30.14 in 10.0 mi Calm Calm - N/A   Clear
2:53 AM 60.1 °F - 57.0 °F 90% 30.14 in 10.0 mi Calm Calm - N/A   Clear
3:53 AM 57.9 °F - 55.9 °F 93% 30.14 in 9.0 mi Calm Calm - N/A   Clear
4:53 AM 57.9 °F - 55.0 °F 90% 30.14 in 10.0 mi Calm Calm - N/A   Clear
5:53 AM 57.9 °F - 55.0 °F 90% 30.14 in 10.0 mi Calm Calm - N/A   Clear
6:53 AM 60.1 °F - 55.9 °F 86% 30.14 in 10.0 mi Calm Calm - N/A   Clear
7:53 AM 64.0 °F - 59.0 °F 84% 30.16 in 10.0 mi NNE 3.5 mph - N/A   Clear
8:53 AM 69.1 °F - 60.1 °F 73% 30.16 in 10.0 mi Variable 3.5 mph - N/A   Clear
9:53 AM 72.0 °F - 62.1 °F 71% 30.16 in 10.0 mi Calm Calm - N/A   Clear
10:53 AM 75.9 °F - 63.0 °F 64% 30.15 in 10.0 mi South 4.6 mph - N/A   Clear
11:53 AM 79.0 °F - 63.0 °F 58% 30.13 in 10.0 mi Calm Calm - N/A   Clear
12:53 PM 82.9 °F 83.3 °F 61.0 °F 47% 30.12 in 10.0 mi South 6.9 mph - N/A   Scattered Clouds
1:53 PM 84.0 °F 83.3 °F 57.0 °F 40% 30.11 in 10.0 mi Variable 3.5 mph - N/A   Scattered Clouds
2:53 PM 86.0 °F 85.0 °F 57.9 °F 38% 30.09 in 10.0 mi SE 6.9 mph - N/A   Scattered Clouds
3:53 PM 82.0 °F 82.7 °F 61.0 °F 49% 30.09 in 10.0 mi SE 3.5 mph - N/A   Mostly Cloudy
4:53 PM 80.1 °F 81.1 °F 61.0 °F 52% 30.08 in 10.0 mi South 6.9 mph - N/A   Mostly Cloudy
5:53 PM 79.0 °F - 60.1 °F 52% 30.09 in 10.0 mi South 9.2 mph - N/A   Overcast
6:53 PM 79.0 °F - 61.0 °F 54% 30.08 in 10.0 mi South 9.2 mph - N/A   Overcast
7:53 PM 75.9 °F - 61.0 °F 60% 30.08 in 10.0 mi South 9.2 mph - N/A   Mostly Cloudy
8:53 PM 73.0 °F - 60.1 °F 64% 30.10 in 10.0 mi South 5.8 mph - N/A   Clear
9:53 PM 71.1 °F - 59.0 °F 66% 30.11 in 10.0 mi SSE 3.5 mph - N/A   Clear
10:53 PM 68.0 °F - 60.1 °F 76% 30.11 in 10.0 mi South 3.5 mph - N/A   Clear
11:53 PM 66.9 °F - 60.1 °F 79% 30.11 in 10.0 mi South 3.5 mph - N/A   Clear